[[{"header":{"parameterUnit":"m.s-1","parameterCategory":1,"la1":30.2991,"la2":30.254,"lo1":-89.0895,"lo2":-89.0444,"dy":0.0017,"dx":0.0017,"nx":28,"ny":28,"refTime":"2025-03-08T09:00:00:Z","depth":0,"parameterNumber":2,"parameterNumberName":"U-component_of_WINDS"},"data":[0,0,0,0,0,0,0,0,0,0,0,0,0,0,0,0,0,0,0,0,0,0,0,0,0,0,0,0,0,0,0,0,0,0,0,0,0,0,0,0,0,0,0,0,0,0,0,0,0,0,0,0,0,0,0,0,0,0,5.8237,5.8237,0,5.8181,5.818,5.8179,5.803,5.8027,5.8024,5.8021,5.7965,5.7966,5.7968,0,0,0,0,0,0,0,0,0,0,0,0,0,5.8221,5.8222,5.8237,5.8236,5.8236,5.8181,5.818,5.8179,5.8031,5.8027,5.8023,5.8019,5.7964,5.7966,5.7968,0,0,0,0,0,0,0,0,0,0,0,0,0,5.8203,5.8223,5.8237,5.8155,5.8147,5.8181,5.818,5.8179,5.8032,5.8027,5.8022,5.8018,5.7964,5.7966,5.7968,5.8078,0,0,5.7975,5.7976,0,0,0,0,0,0,0,0,5.8204,5.8204,5.8168,5.8161,5.8152,5.8108,5.8154,5.8145,5.8033,5.8076,5.8021,5.8015,5.8016,5.8014,5.8014,5.8075,5.8073,5.7975,5.7977,5.7978,5.7978,0,0,0,0,0,0,0,5.8206,5.8205,5.8215,5.8168,5.8158,5.8123,5.8115,5.8151,5.8074,5.8071,5.8061,5.8056,5.8011,5.8012,5.8012,5.8072,5.7975,5.7977,5.7978,5.7979,5.8226,5.8231,0,0,0,0,0,0,5.8218,5.8207,5.8217,5.8213,5.8167,5.8127,5.8118,5.8127,5.8073,5.806,5.806,5.8049,5.8011,5.8009,5.8009,5.8138,5.7977,5.798,5.7981,5.8221,5.8227,5.8233,0,0,0,0,0,0,5.8219,5.822,5.8219,5.8207,5.8204,5.8132,5.8143,5.8128,5.8129,5.8064,5.805,5.8075,5.8007,5.8006,5.8063,5.8134,5.7981,5.7983,5.8215,5.8223,5.823,5.8395,0,0,0,0,0,0,5.8219,5.8221,5.8261,5.8209,5.8206,5.8273,5.8147,5.813,5.8133,5.8118,5.8074,5.8063,5.8003,5.8061,5.8065,5.8134,5.7984,5.8208,5.8218,5.8228,5.8383,5.8407,5.8428,0,0,0,0,0,5.8219,5.8309,5.8264,5.8266,5.8253,5.8277,5.8275,5.8204,5.8139,5.818,5.8139,5.8064,5.8125,5.8068,5.8072,5.8142,5.8203,5.8216,5.8227,5.8373,5.8402,5.8428,0,0,0,0,0,0,5.837,5.83,5.8249,5.8325,5.8309,5.8252,5.83,5.8237,5.8239,5.8225,5.8137,5.8129,5.82,5.8176,5.8113,5.8249,5.8152,5.8166,5.8262,5.829,5.8312,5.8318,5.7986,0,0,0,0,0,5.8412,5.8436,5.8374,5.8447,5.8441,5.8373,5.838,5.8328,5.8307,5.8299,5.8262,5.8246,5.8261,5.8273,5.8284,5.8378,5.8369,5.8429,5.8452,5.8471,5.8484,5.8538,5.8565,5.8272,5.8272,5.8271,0,0,5.8499,5.8464,5.8484,5.8477,5.8457,5.8487,5.8368,5.8402,5.8424,5.8304,5.8357,5.833,5.8306,5.8384,5.8416,5.8366,5.8563,5.8486,5.8502,5.8504,5.8553,5.858,5.8605,5.828,5.8278,5.8277,0,0,5.8674,5.8648,5.8709,5.8693,5.8666,5.862,5.8635,5.8589,5.8567,5.8619,5.8531,5.8556,5.8584,5.8572,5.857,5.8746,5.8679,5.8752,5.8872,5.8925,5.8948,5.8968,5.9035,5.906,5.8764,5.8765,5.8765,0,5.8786,5.8826,5.8748,5.879,5.8791,5.8685,5.8748,5.8736,5.8714,5.8718,5.8662,5.8699,5.8674,5.8751,5.8795,5.8794,5.8812,5.8757,5.8951,5.897,5.8988,5.9051,5.9076,5.8774,5.8773,5.8772,5.8771,0,5.8968,5.8997,5.905,5.9033,5.904,5.9092,5.9024,5.9041,5.8988,5.895,5.9007,5.8975,5.8979,5.8993,5.8941,5.9064,5.9034,5.8966,5.8868,5.9027,5.9085,5.9108,5.8788,5.8784,5.8781,5.8779,0,0,5.9236,5.9178,5.9199,5.9193,5.9157,5.9179,5.9228,5.9233,5.9251,5.924,5.9282,5.931,5.9248,5.9246,5.9192,5.9238,5.9387,5.9165,5.9163,5.9211,5.9525,5.958,5.9608,5.9341,5.9345,5.9348,5.9529,0,5.9405,5.9485,5.9419,5.9512,5.9541,5.9443,5.9486,5.947,5.9437,5.9458,5.9419,5.9443,5.9357,5.9356,5.9397,5.936,5.9449,5.9345,5.9382,5.9385,5.9395,5.9638,5.9694,5.9866,5.955,5.9554,5.9557,0,5.9612,5.9613,5.9711,5.9674,5.9683,5.9723,5.9725,5.9745,5.9727,5.9699,5.97,5.9635,5.9683,5.9586,5.9654,5.9585,5.9596,5.9581,5.9586,5.9589,5.9483,5.9652,5.9918,5.9946,5.9591,5.9588,5.9586,0,5.9804,5.983,5.9892,5.9889,5.9846,5.9877,5.9861,5.9837,5.9847,5.9848,5.9854,5.9862,5.9867,5.9875,5.9816,5.9749,5.9893,5.979,5.9875,5.9877,5.9911,5.9911,6.0187,5.9913,5.9913,5.9912,5.9912,0,6.0002,6.0067,5.9979,6.0018,6.0089,6.0012,6.0085,6.0058,6.0039,6.0074,5.9987,6.0022,5.9939,5.9965,5.9918,5.9985,5.9987,5.9968,5.9956,5.9978,5.9981,5.9986,5.9974,5.9919,5.9918,5.9916,5.9915,0,6.0229,6.0172,6.0235,6.019,6.0181,6.0236,6.0198,6.0233,6.0194,6.0239,6.0245,6.0185,6.0212,6.0153,6.0171,6.014,6.0236,6.0202,6.0243,6.0234,6.0324,6.0318,6.0616,6.0654,6.0353,6.0356,6.0358,0,6.0361,6.0409,6.037,6.0387,6.0376,6.0404,6.0413,6.0341,6.0354,6.034,6.0379,6.0399,6.0411,6.0459,6.0418,6.0433,6.0402,6.0505,6.0403,6.0426,6.0409,6.0408,6.0415,6.0528,6.0531,6.0534,6.0537,0,6.0603,6.0573,6.059,6.0599,6.0614,6.0617,6.0614,6.0633,6.0556,6.0576,6.0603,6.0613,6.0633,6.0656,6.0662,6.0646,6.0581,6.0569,6.059,6.0615,6.0638,6.0631,6.0304,6.0563,6.056,6.0558,6.0557,6.0556,6.0789,6.0829,6.0809,6.0832,6.0823,6.0824,6.0857,6.0823,6.0844,6.0855,6.0811,6.085,6.0834,6.0835,6.0827,6.0858,6.0811,6.0841,6.0849,6.0858,6.0875,6.0631,6.0858,6.0857,6.0856,6.0856,6.0855,0,6.103,6.1013,6.1035,6.1035,6.1055,6.099,6.0985,6.1006,6.1041,6.1031,6.1046,6.108,6.1102,6.1064,6.1081,6.1113,6.1084,6.112,6.1119,6.1118,6.0913,6.0895,6.1144,6.1144,6.1144,6.1144,6.1144,6.1144,6.1158,6.1224,6.1193,6.1255,6.1237,6.1275,6.1278,6.1279,6.1272,6.1314,6.1332,6.1307,6.1287,6.1303,6.1322,6.131,6.1322,6.137,6.1349,6.1159,6.1131,6.1104,6.1087,6.1372,6.1373,6.155,6.1552,6.1554]},{"header":{"parameterUnit":"m.s-1","parameterCategory":1,"la1":30.2991,"la2":30.254,"lo1":-89.0895,"lo2":-89.0444,"dy":0.0017,"dx":0.0017,"nx":28,"ny":28,"refTime":"2025-03-08T09:00:00:Z","depth":0,"parameterNumber":3,"parameterNumberName":"V-component_of_WINDS"},"data":[0,0,0,0,0,0,0,0,0,0,0,0,0,0,0,0,0,0,0,0,0,0,0,0,0,0,0,0,0,0,0,0,0,0,0,0,0,0,0,0,0,0,0,0,0,0,0,0,0,0,0,0,0,0,0,0,0,0,1.6816,1.6818,0,1.7047,1.7049,1.7052,1.7167,1.7167,1.7167,1.7167,1.7401,1.7407,1.7414,0,0,0,0,0,0,0,0,0,0,0,0,0,1.6471,1.6476,1.6816,1.6819,1.6822,1.7046,1.7049,1.7052,1.7167,1.7167,1.7167,1.7167,1.7399,1.7407,1.7414,0,0,0,0,0,0,0,0,0,0,0,0,0,1.6653,1.6478,1.6815,1.6906,1.6916,1.7045,1.7049,1.7053,1.7167,1.7167,1.7167,1.7167,1.7397,1.7406,1.7415,1.7471,0,0,1.7444,1.7448,0,0,0,0,0,0,0,0,1.6642,1.6665,1.689,1.69,1.6912,1.7078,1.7014,1.7193,1.7167,1.7072,1.7167,1.7167,1.7294,1.7311,1.7355,1.7482,1.7492,1.7444,1.745,1.7454,1.7457,0,0,0,0,0,0,0,1.6629,1.6656,1.6907,1.6893,1.6906,1.6934,1.6959,1.7048,1.7179,1.708,1.7089,1.7115,1.73,1.7345,1.7361,1.7496,1.7444,1.7452,1.7458,1.7462,1.7678,1.7678,0,0,0,0,0,0,1.6602,1.6645,1.69,1.6914,1.6774,1.694,1.6969,1.7025,1.7179,1.7202,1.7114,1.7119,1.7329,1.735,1.7369,1.7444,1.7454,1.7463,1.7468,1.7678,1.7678,1.7678,0,0,0,0,0,0,1.6595,1.6624,1.689,1.6782,1.6818,1.6946,1.7007,1.7029,1.7075,1.7205,1.7229,1.7137,1.733,1.7356,1.7445,1.7454,1.7467,1.7475,1.7677,1.7678,1.7678,1.7594,0,0,0,0,0,0,1.6584,1.6621,1.6645,1.6782,1.6823,1.6963,1.7008,1.7034,1.7091,1.7099,1.7233,1.7255,1.7332,1.743,1.7454,1.7467,1.7483,1.7677,1.7677,1.7678,1.7596,1.7591,1.7587,0,0,0,0,0,1.6572,1.6612,1.6645,1.6675,1.6856,1.6963,1.6987,1.7076,1.7091,1.7115,1.7198,1.725,1.7448,1.7438,1.7466,1.7482,1.7677,1.7677,1.7678,1.7598,1.7592,1.7587,0,0,0,0,0,0,1.6473,1.6632,1.667,1.6757,1.6845,1.6982,1.7016,1.7067,1.7153,1.7157,1.7263,1.7292,1.737,1.7435,1.742,1.7542,1.7568,1.7573,1.7498,1.7493,1.7488,1.7471,1.749,0,0,0,0,0,1.6462,1.6536,1.667,1.6733,1.6776,1.6887,1.6938,1.6998,1.7095,1.7133,1.7222,1.7313,1.7395,1.7447,1.7531,1.7605,1.7635,1.763,1.7625,1.762,1.7624,1.7666,1.7664,1.7679,1.7679,1.7679,0,0,1.6439,1.6534,1.6575,1.6716,1.6792,1.6866,1.6919,1.6995,1.705,1.7144,1.7233,1.7301,1.7409,1.7489,1.753,1.7546,1.7626,1.762,1.7616,1.7623,1.7666,1.7664,1.7663,1.7679,1.7679,1.7679,0,0,1.6434,1.6515,1.6575,1.6649,1.6763,1.6837,1.6851,1.698,1.7028,1.7119,1.719,1.7256,1.7396,1.747,1.7525,1.7543,1.7593,1.7567,1.7542,1.7581,1.758,1.758,1.7585,1.7585,1.757,1.757,1.757,0,1.6391,1.6506,1.66,1.6671,1.673,1.6817,1.6878,1.6945,1.708,1.7118,1.7134,1.731,1.7389,1.7487,1.749,1.7533,1.7551,1.7553,1.7573,1.7573,1.7574,1.758,1.7582,1.7566,1.7567,1.7567,1.7567,0,1.6447,1.6525,1.656,1.6687,1.675,1.6815,1.6917,1.6968,1.7022,1.7093,1.7182,1.7279,1.7382,1.7409,1.7463,1.7514,1.752,1.7553,1.758,1.7567,1.7574,1.7578,1.756,1.7562,1.7563,1.7564,0,0,1.6391,1.6566,1.6577,1.6635,1.6765,1.6827,1.6894,1.6995,1.7036,1.7125,1.7184,1.7298,1.7329,1.7391,1.7453,1.7488,1.7493,1.7516,1.752,1.7508,1.7553,1.7527,1.7528,1.7527,1.7527,1.7528,1.7543,0,1.6404,1.6532,1.6616,1.6709,1.6781,1.6863,1.6921,1.7006,1.7073,1.7142,1.7216,1.7295,1.733,1.7368,1.7405,1.7485,1.7504,1.7485,1.7581,1.7583,1.7552,1.7533,1.7507,1.7516,1.7547,1.7547,1.7548,0,1.6439,1.6524,1.6624,1.6744,1.6777,1.6829,1.6926,1.6992,1.7088,1.7134,1.7201,1.7264,1.7337,1.7356,1.7457,1.7442,1.7485,1.7529,1.7532,1.7545,1.7565,1.7544,1.7522,1.7523,1.7553,1.7553,1.7553,0,1.6386,1.6526,1.6604,1.6651,1.6792,1.6826,1.6886,1.6983,1.7037,1.7121,1.7156,1.7247,1.7297,1.7365,1.7449,1.7456,1.754,1.7568,1.7579,1.7577,1.7594,1.7592,1.7578,1.7622,1.7622,1.7622,1.7622,0,1.6393,1.6451,1.6582,1.663,1.6696,1.679,1.6853,1.6919,1.7004,1.7064,1.714,1.7194,1.7302,1.7369,1.7435,1.7507,1.7529,1.7567,1.7584,1.7561,1.7555,1.7591,1.7592,1.7622,1.7622,1.7622,1.7622,0,1.6348,1.6438,1.6527,1.6652,1.6685,1.6728,1.6834,1.6882,1.6951,1.7027,1.705,1.7158,1.7241,1.7331,1.7444,1.7488,1.7555,1.758,1.7523,1.7533,1.7539,1.7536,1.7547,1.7553,1.7592,1.7591,1.7591,0,1.6347,1.6393,1.6522,1.6568,1.6626,1.6699,1.6754,1.6847,1.69,1.7011,1.7045,1.7133,1.7209,1.7336,1.7424,1.751,1.7536,1.7534,1.755,1.7524,1.7535,1.7531,1.7535,1.7529,1.7529,1.7528,1.7527,0,1.6335,1.6376,1.6453,1.6543,1.6606,1.6683,1.6762,1.6794,1.6902,1.6958,1.7043,1.7101,1.7215,1.7301,1.7396,1.7457,1.7509,1.7521,1.7528,1.7505,1.747,1.7488,1.751,1.7521,1.7522,1.7522,1.7522,1.7523,1.6312,1.6355,1.6452,1.6534,1.6602,1.6673,1.6723,1.6798,1.6871,1.6971,1.702,1.7104,1.7196,1.7329,1.7387,1.7453,1.747,1.748,1.7483,1.7484,1.7477,1.7458,1.7471,1.7471,1.7471,1.7472,1.7472,0,1.6303,1.6368,1.6442,1.6549,1.6612,1.6655,1.6744,1.6793,1.6866,1.6947,1.7019,1.7115,1.7197,1.7289,1.7377,1.7411,1.7437,1.7431,1.7429,1.7442,1.7458,1.7443,1.7408,1.7408,1.7408,1.7408,1.7408,1.7408,1.6306,1.6382,1.6433,1.6542,1.6607,1.669,1.6736,1.6801,1.6866,1.6969,1.7038,1.7097,1.7182,1.7275,1.7351,1.7376,1.7404,1.7391,1.7422,1.7436,1.7441,1.7446,1.7432,1.7396,1.7396,1.7401,1.7401,1.7401]}]]